Retour au catalogue

STARLINK-33868

ActifCommunicationsVLEO
NORAD 63703·PAYLOAD·🇺🇸 United States

Lancé Apr 28, 2025 depuis Vandenberg Space Force Base

Loading…

Prochains Passages (prochaines 24 heures)

TLE

FraisSource: CelesTrak SupGP

Époque: Sep 15, 2026, 03:09 UTC

1 63703C 25087G   26258.13173611 -.00021508  00000+0 -63635-3 0  2588
2 63703  53.1603  58.6612 0001282  82.2738  57.9764 15.34356987    10

Suivez STARLINK-33868 en temps réel avec AllMySat

Download on the App Store